Theta_e
289 286 285 286 289 288 288 289 291 290 287 284 284 284 283 284 285 284 285 287 287 287 286 287 285 284 287 285 286 287 288 287 286 286 286 286 286 285 285 285 285 285 285 286 287 287 287 287 288 288 288 289 289 290 290 290 291 291 291 292 292 294 295 296 298 299 301 303 302 301 300 300 300 299 299 299 299 298 298 299 300 300 301 302 303 304
291 286 286 290 290 289 290 289 288 285 286 287 286 284 284 282 284 286 287 287 287 288 283 282 283 286 287 285 286 286 286 285 285 285 285 285 285 285 284 284 284 285 286 286 286 286 286 286 287 287 287 288 287 288 289 289 289 290 291 291 291 292 293 294 295 296 297 299 300 299 298 297 297 296 295 295 296 295 295 295 295 296 296 297 299 300
286 286 290 291 290 287 287 287 286 286 285 284 284 283 282 285 283 286 286 285 286 287 285 283 285 287 285 284 286 285 284 285 285 285 285 284 284 284 284 284 284 284 284 284 285 285 285 285 285 286 286 286 286 287 287 288 289 289 289 290 290 291 291 292 294 295 294 295 296 297 297 297 295 296 295 294 294 294 293 292 293 293 293 293 293 295
286 285 290 290 288 289 287 284 285 285 284 284 283 283 284 283 285 283 285 284 286 285 284 283 284 287 283 284 285 285 285 284 285 285 284 285 284 283 283 283 283 283 283 283 283 283 284 284 284 285 285 285 286 286 286 287 287 288 288 289 289 290 290 291 292 293 293 294 294 294 294 294 294 292 293 292 292 291 291 289 290 290 291 291 290 291
290 289 288 288 288 289 287 284 285 284 284 282 284 284 284 284 284 286 285 284 283 285 282 284 283 283 283 284 283 284 285 285 284 284 284 284 284 284 284 283 283 282 282 282 282 283 283 283 283 283 284 284 284 284 285 285 286 287 287 288 288 289 289 290 291 291 292 293 292 292 292 292 291 290 290 289 288 288 288 287 287 287 288 288 289 289
287 291 288 287 285 286 287 284 284 286 282 281 282 286 287 286 285 283 283 285 282 281 282 283 278 276 278 280 282 283 283 283 283 282 282 282 282 282 282 282 283 283 282 282 282 282 282 282 282 283 283 283 283 284 284 284 285 286 286 287 287 288 288 289 290 291 291 290 290 290 289 287 286 285 285 285 284 284 284 284 285 285 286 286 286 287
289 289 291 291 286 285 285 284 283 287 282 283 285 285 287 286 284 283 283 284 279 279 284 282 280 274 279 280 282 282 281 282 282 281 281 281 282 281 281 281 281 281 281 282 281 281 281 282 282 282 282 282 283 283 283 284 284 285 285 285 286 286 287 288 288 289 290 288 288 287 286 286 285 283 284 284 285 284 284 284 284 284 285 285 285 285
288 286 287 287 287 286 284 284 284 287 285 282 284 282 284 284 284 282 282 284 280 280 281 281 283 276 275 283 283 282 281 280 281 281 281 281 281 281 281 281 280 281 280 280 280 281 281 281 281 281 281 282 282 282 283 283 283 283 284 284 285 285 286 286 286 287 288 286 286 285 285 284 283 283 282 283 283 284 284 284 284 284 284 285 285 285
288 286 285 286 286 284 286 285 285 288 286 283 285 282 283 284 282 281 283 281 280 281 279 278 281 280 275 279 280 282 281 280 280 281 281 281 281 281 280 281 280 280 280 280 280 280 280 280 280 281 281 281 281 282 282 282 282 283 283 284 284 284 284 284 285 285 285 286 284 284 283 283 283 283 283 283 284 283 284 283 283 283 283 284 284 284
287 289 286 288 286 285 285 283 285 289 287 285 283 283 282 281 281 279 278 281 277 278 273 278 281 277 277 278 280 281 281 280 280 282 281 281 281 281 281 281 281 280 280 280 280 280 280 280 280 280 280 281 281 281 282 282 282 282 282 283 283 283 283 283 283 284 284 284 284 283 282 282 282 282 282 283 283 283 283 282 282 283 283 283 283 284
287 288 288 287 287 286 284 284 284 286 286 284 283 283 282 280 279 278 277 276 277 272 275 280 280 282 276 279 280 279 281 280 282 280 280 280 280 281 280 280 280 280 279 279 279 279 279 279 279 280 280 280 280 280 281 282 281 282 282 282 282 282 283 283 283 283 283 283 283 283 282 282 282 282 282 282 282 282 282 282 282 282 282 283 283 283
286 287 287 286 287 285 284 284 283 283 282 284 285 281 282 282 277 276 269 274 272 270 272 276 278 281 274 276 280 279 280 280 282 282 281 280 280 280 280 280 280 279 279 279 279 279 279 279 279 279 279 280 280 280 281 281 281 282 281 282 281 281 282 282 283 283 283 283 283 283 283 282 282 282 282 281 281 281 281 281 282 282 283 283 283 283
285 286 284 287 288 288 283 284 284 283 283 283 282 282 276 273 273 271 268 273 271 271 277 278 278 279 279 280 281 279 279 280 279 281 282 281 281 280 280 280 280 279 279 279 279 279 279 278 278 278 279 279 279 280 280 280 281 281 281 281 281 281 281 282 282 282 282 282 282 283 283 283 283 282 282 282 281 281 282 282 282 282 282 283 283 284
282 281 284 287 287 287 288 285 282 282 283 283 284 278 273 271 266 264 266 263 267 272 276 280 280 278 279 281 279 279 280 280 280 280 282 282 282 281 280 280 279 279 279 279 279 279 279 279 279 279 279 279 279 279 280 280 281 281 281 281 281 281 281 281 282 282 282 282 282 283 283 282 283 282 282 282 282 283 283 284 283 283 283 283 283 283
276 279 284 286 285 286 289 290 287 282 282 283 282 284 281 271 263 267 262 271 273 274 276 277 275 271 276 282 277 279 279 279 279 280 282 282 280 280 279 279 278 279 279 278 278 278 278 279 279 279 279 279 279 279 280 279 280 280 281 281 281 281 281 281 281 282 282 282 282 282 283 283 282 282 283 283 283 283 283 284 284 284 284 283 283 284
281 280 283 285 285 286 288 286 284 283 284 280 280 282 279 280 277 276 269 267 266 270 270 273 275 276 280 279 279 278 278 278 279 279 281 280 279 279 279 279 279 279 279 278 278 278 278 279 279 279 279 279 279 279 279 279 279 280 280 280 281 281 281 281 281 281 281 281 281 281 281 282 283 283 283 283 283 283 283 283 284 284 284 284 284 284
280 280 283 285 284 285 286 285 287 286 282 282 283 278 281 283 281 272 271 270 270 269 273 268 277 279 279 279 277 277 278 278 279 278 279 279 279 278 279 278 278 279 278 278 278 278 278 278 279 279 279 279 279 279 279 279 279 279 280 280 280 280 280 281 281 281 281 281 281 281 281 281 281 281 281 281 282 282 282 282 283 283 283 283 283 283
280 278 282 284 286 287 284 285 284 284 285 283 278 282 283 283 282 280 274 271 264 269 273 270 276 277 278 276 278 278 278 277 278 278 278 279 278 278 279 279 279 279 279 278 278 277 278 278 279 279 279 279 279 279 279 280 279 279 280 280 281 282 282 281 282 282 282 282 283 283 282 281 281 281 281 281 281 281 281 281 281 281 281 280 281 282
287 281 282 284 284 286 284 287 286 285 285 282 281 283 284 278 278 279 275 272 270 268 269 272 274 275 278 280 277 278 277 278 277 278 278 278 278 278 279 279 279 278 278 278 278 278 278 278 279 279 279 280 279 280 280 282 282 282 282 282 281 281 281 281 282 282 283 284 283 283 281 280 280 280 281 282 282 282 282 281 281 281 281 280 281 280
286 280 281 285 285 286 285 284 281 283 286 285 286 285 284 282 279 277 281 278 277 272 268 273 271 277 279 279 281 281 280 279 278 278 278 280 279 280 280 280 279 279 279 279 278 278 279 279 279 279 279 281 281 281 282 282 281 280 280 280 280 281 280 280 280 281 280 280 280 280 279 279 279 279 280 280 280 279 279 279 279 280 280 280 280 280
285 285 277 282 285 285 282 283 283 285 284 283 283 281 283 278 281 279 278 275 276 267 269 270 275 276 277 279 280 281 281 280 280 280 280 280 280 280 280 280 279 280 279 279 279 279 279 279 280 281 282 282 282 282 280 280 280 281 280 280 280 280 280 281 281 280 280 280 279 278 278 278 278 278 279 279 280 279 279 279 279 278 278 277 278 278
285 284 281 279 282 281 281 282 283 284 286 284 285 283 285 280 278 276 277 277 271 275 274 271 276 278 279 280 280 279 280 281 282 281 281 281 281 281 281 280 280 280 280 280 279 279 279 279 280 280 279 279 279 280 280 281 281 281 282 282 282 281 280 279 279 278 279 279 278 278 278 277 278 278 278 278 277 277 277 277 277 277 277 277 277 277
286 282 278 277 280 283 284 285 283 283 284 284 285 284 284 282 281 278 276 275 272 275 273 271 270 279 281 280 279 280 279 281 281 281 281 282 281 281 281 281 281 281 281 280 279 279 279 280 280 280 281 281 281 282 282 282 282 282 282 281 280 279 278 279 279 278 279 278 278 277 277 277 277 277 277 277 276 276 276 276 276 276 275 275 274 275
292 285 280 280 280 280 283 283 283 283 285 287 284 280 282 283 284 283 283 280 277 276 276 273 274 280 282 279 279 279 279 280 281 281 281 282 282 282 281 281 281 281 280 279 279 279 280 281 281 282 282 283 283 282 282 282 281 280 279 278 278 278 277 277 277 277 277 277 276 276 275 275 276 276 276 275 275 275 275 275 274 274 273 273 273 272
286 285 285 279 277 281 283 286 287 287 286 284 284 282 281 281 281 280 280 279 279 279 279 277 275 279 279 279 280 278 279 279 280 281 281 282 282 282 281 281 282 281 280 279 280 281 282 282 282 283 283 283 282 281 279 279 278 277 276 276 277 277 276 276 276 277 276 275 275 274 274 274 275 275 274 274 274 274 273 272 272 272 271 271 271 271
287 285 284 280 278 276 276 276 279 282 285 284 283 283 283 285 284 283 280 277 278 279 278 274 279 282 281 280 281 280 279 278 280 281 280 281 281 281 282 282 282 281 281 281 281 281 281 281 281 281 281 281 280 279 277 277 276 276 276 276 276 276 276 276 275 275 275 275 274 274 273 274 274 274 273 273 273 272 272 271 270 270 270 270 270 270
286 286 286 286 284 282 284 283 285 285 283 283 285 285 286 284 285 284 279 276 279 279 278 281 282 278 281 282 281 281 279 280 281 281 281 281 281 282 283 283 282 282 281 281 281 280 279 279 280 280 279 279 278 277 277 276 276 275 275 275 275 275 275 275 275 274 274 273 273 273 273 273 273 273 272 272 271 271 270 270 269 269 269 269 269 269
284 282 285 285 286 287 288 286 284 286 285 285 285 283 284 283 282 282 282 280 281 278 278 283 279 280 284 283 283 282 281 280 280 280 281 281 282 283 284 282 283 280 280 280 279 279 279 280 280 279 279 278 278 276 276 276 276 275 275 275 274 274 274 275 274 273 273 272 272 272 272 272 272 271 271 271 270 269 269 268 268 268 268 268 267 267
284 283 285 285 285 287 283 284 284 284 284 283 283 285 283 282 279 280 282 284 284 282 280 283 281 282 283 283 281 282 283 283 282 282 283 284 282 281 280 280 280 280 280 279 279 279 279 279 280 280 279 278 277 276 276 275 275 274 274 274 273 273 273 273 272 272 271 271 271 271 271 271 271 270 270 269 268 268 267 267 266 266 266 266 265 266
285 280 281 283 283 282 282 282 283 283 282 282 282 282 283 281 280 282 282 283 283 283 282 281 281 281 284 281 280 283 282 282 280 282 282 282 282 281 280 280 280 280 279 280 280 280 280 280 280 279 279 277 277 276 276 275 275 274 274 273 273 272 272 271 271 271 271 270 270 271 271 270 269 268 268 267 266 266 265 265 264 264 264 264 264 264
287 282 282 278 279 279 278 279 281 282 282 282 283 284 283 281 281 282 283 281 280 280 281 282 281 281 284 281 281 280 280 280 280 280 281 280 280 281 281 280 280 280 280 280 280 280 280 280 279 279 278 277 277 277 276 276 275 274 273 272 272 271 271 271 270 270 269 270 270 270 269 268 267 266 266 265 265 263 263 264 263 262 262 262 262 262
286 280 279 278 279 277 276 278 276 276 276 276 278 280 279 277 277 279 278 280 280 279 280 278 277 279 282 278 279 278 279 280 282 282 281 280 279 280 280 281 281 280 280 280 280 280 279 279 279 279 278 277 277 277 276 275 274 273 273 272 271 271 270 269 269 269 268 268 268 268 267 266 265 264 264 263 262 262 261 261 260 260 261 261 261 262
284 280 277 274 275 277 274 274 274 274 276 276 278 279 279 279 281 277 277 279 282 282 278 276 278 284 278 278 279 279 279 279 279 279 280 279 279 279 280 281 281 280 280 280 280 279 279 279 279 279 278 278 277 277 277 276 274 273 272 271 271 270 268 268 268 267 267 267 266 265 265 264 263 262 261 261 261 260 260 259 260 260 260 260 260 260
281 282 278 279 277 274 272 272 274 274 270 274 281 282 281 278 279 278 279 280 280 282 278 281 281 278 275 276 278 279 278 277 279 280 280 280 279 278 279 279 280 280 280 279 279 280 280 279 279 278 278 278 277 277 276 274 274 273 272 270 269 268 267 267 267 266 266 265 264 264 264 263 261 261 261 260 260 260 259 259 259 259 259 260 260 260
281 281 280 277 276 272 273 274 273 269 274 279 276 277 279 280 279 279 280 280 279 280 280 279 278 277 279 280 280 279 278 276 276 276 277 278 279 279 279 279 279 279 279 279 278 278 279 279 278 277 276 276 276 274 273 272 271 270 269 269 267 267 266 265 265 265 265 263 263 263 262 262 261 260 260 259 259 258 258 259 258 259 259 259 260 259
280 280 277 275 274 273 271 274 269 272 278 277 276 276 277 276 276 275 274 276 276 277 279 278 279 279 280 279 278 277 276 275 274 274 276 276 277 279 279 279 279 279 279 279 279 279 278 278 277 277 277 275 273 273 272 271 270 268 267 267 266 265 264 263 263 264 263 262 261 262 263 261 260 259 259 260 258 258 259 259 258 258 259 258 259 258
283 280 280 277 280 271 274 273 275 278 278 279 275 273 276 274 274 274 270 275 278 277 276 276 277 279 278 277 276 273 273 274 275 276 274 274 275 277 279 279 279 279 279 279 279 279 279 278 277 277 275 273 272 271 270 269 267 267 265 265 264 264 264 263 262 262 263 262 262 262 261 261 260 259 258 258 258 257 257 259 258 258 258 257 258 258
281 282 282 279 276 278 272 272 270 270 270 276 278 273 277 276 277 276 275 269 275 273 277 277 277 278 276 274 273 272 272 274 272 276 275 274 274 275 276 278 277 277 278 277 277 276 276 276 275 274 274 272 270 269 268 267 266 265 264 264 263 263 263 262 262 262 261 262 261 261 261 261 259 258 257 256 256 257 258 257 257 257 257 257 257 257
281 282 281 281 277 272 272 272 271 270 273 277 273 274 275 275 277 274 270 266 273 273 275 276 276 275 275 274 272 272 271 267 269 274 277 275 274 275 276 276 276 275 275 276 276 276 276 275 274 273 271 270 268 267 266 266 265 265 264 263 263 262 261 262 262 261 261 261 261 261 260 259 258 258 257 256 257 256 256 256 257 257 257 257 256 257
276 276 278 275 273 275 273 272 271 272 271 272 268 271 273 272 276 273 260 261 267 272 272 275 276 274 274 272 272 273 272 265 270 275 275 275 276 275 276 276 275 275 274 274 275 276 275 272 270 269 269 269 269 266 265 265 265 264 263 263 262 262 261 262 262 262 261 261 261 260 258 258 257 257 256 257 256 255 256 256 256 256 257 256 256 256
275 273 276 273 276 276 277 273 271 272 276 272 271 272 273 273 272 263 265 266 270 272 272 275 276 276 274 271 273 270 274 277 277 277 275 274 275 276 275 275 275 275 274 274 275 276 272 272 272 271 270 270 267 265 264 264 264 263 262 262 262 261 262 262 261 261 260 260 259 258 258 256 256 255 255 254 255 256 255 255 256 256 255 255 255 255
269 270 271 275 272 274 275 272 273 276 279 276 275 276 275 274 264 267 272 273 276 274 273 275 276 275 274 274 274 276 277 277 276 275 274 273 275 275 275 274 273 272 272 273 274 272 272 271 270 268 267 266 265 264 263 263 263 262 262 261 261 260 262 261 261 260 258 258 257 256 255 254 254 255 254 253 253 254 255 255 255 255 254 255 255 254
271 269 268 272 274 272 271 270 270 266 276 277 276 274 275 269 269 273 272 274 275 275 274 274 275 275 275 274 275 276 276 275 274 275 275 274 273 275 274 273 273 273 272 271 271 270 271 270 269 268 266 264 263 263 263 261 261 260 260 261 261 261 260 259 259 259 257 256 255 255 254 253 253 253 253 253 254 253 254 254 253 253 254 254 254 254
272 265 262 267 275 267 271 267 269 276 275 277 278 273 273 277 276 275 276 274 274 274 275 275 275 275 275 276 275 275 275 275 274 274 273 273 273 273 273 273 273 273 272 271 272 271 270 270 268 266 264 263 262 262 262 261 261 259 260 261 261 260 259 258 257 256 255 255 254 253 252 252 251 252 251 252 252 251 252 253 253 253 253 254 254 254
275 271 271 269 273 269 269 273 274 275 276 278 279 277 279 280 275 276 276 277 276 275 274 275 276 275 275 275 275 275 274 274 275 276 274 275 274 273 273 274 274 274 273 273 272 270 269 270 268 265 262 262 261 261 259 259 260 259 258 259 260 259 257 256 253 253 253 251 251 250 250 250 250 250 250 250 251 252 253 253 251 253 252 253 253 253
272 273 272 271 270 273 273 274 274 273 276 277 279 278 278 277 275 274 275 275 275 276 276 276 276 275 275 274 274 272 273 275 274 274 273 274 274 274 273 272 272 271 270 269 268 268 268 266 264 263 261 260 260 259 258 257 259 258 258 259 258 257 256 254 252 252 252 250 250 250 250 250 251 250 251 251 252 251 252 252 253 253 253 253 253 253
272 273 271 271 271 270 267 273 274 275 275 277 279 278 277 276 277 277 276 277 278 275 275 275 276 275 275 273 274 275 275 275 274 275 274 273 273 273 273 273 273 273 272 270 270 266 265 264 263 262 261 260 259 259 258 256 256 257 258 257 258 257 254 251 252 253 252 251 251 250 250 250 251 251 252 250 250 251 252 253 252 252 253 253 253 253
270 274 271 273 270 270 269 272 274 273 273 276 278 277 278 278 277 276 277 277 277 275 275 275 273 272 272 272 274 274 275 275 273 274 274 274 274 273 272 272 273 271 270 269 266 265 263 264 265 263 262 262 260 260 258 257 257 256 256 256 257 253 252 253 253 252 251 250 249 250 250 250 254 253 251 252 251 252 252 252 252 252 252 253 253 253
272 275 266 268 271 268 272 272 272 273 274 274 275 275 277 279 279 277 276 275 274 274 273 273 273 274 274 275 274 273 273 274 274 274 274 274 273 272 273 273 272 272 270 267 265 264 266 265 264 264 263 263 261 260 259 258 259 257 256 257 253 251 252 252 253 252 250 249 249 250 252 251 250 251 251 251 251 252 253 253 253 253 254 256 256 256
272 271 271 270 265 264 268 273 273 267 267 275 275 277 277 278 277 276 275 273 273 273 273 274 274 273 274 274 274 273 273 274 274 273 273 274 274 273 273 272 271 269 268 266 264 263 264 263 264 263 263 262 261 260 260 259 258 256 256 255 253 252 252 253 251 249 248 250 249 249 249 250 250 249 250 250 251 251 252 257 260 260 259 259 263 266
274 275 273 271 271 265 273 275 277 278 277 276 277 278 278 276 275 275 275 275 275 275 275 274 274 273 272 272 273 273 273 274 275 273 272 273 273 274 274 272 270 268 267 263 262 261 263 262 262 262 262 261 260 260 259 259 257 256 256 256 256 254 254 253 252 250 250 250 250 251 251 250 250 250 251 251 251 251 252 252 255 260 263 264 265 266
Wind_Speed
1 4 5 9 8 8 7 11 13 5 2 2 2 2 4 5 6 3 3 6 0 2 6 7 5 4 8 2 4 3 3 7 6 6 5 4 4 5 5 5 5 6 5 5 5 6 7 9 9 8 8 8 9 12 12 13 13 13 11 12 13 9 10 10 8 9 8 8 9 11 12 10 8 10 11 12 11 11 10 12 12 13 11 12 13 11
2 4 9 9 6 9 9 6 2 1 1 1 2 2 6 3 8 3 3 2 1 3 3 1 2 7 7 2 4 3 5 6 3 4 4 4 4 4 5 5 5 2 3 6 9 10 9 10 11 9 9 10 13 11 12 12 10 10 12 13 10 10 11 11 8 7 9 7 8 10 8 9 9 9 9 9 9 10 10 12 13 12 12 13 12 11
1 8 10 11 2 3 2 3 3 5 4 0 3 2 3 8 4 9 3 3 1 3 8 2 3 8 1 3 4 5 5 3 4 3 2 3 4 4 5 5 5 6 6 7 7 8 9 10 10 8 8 9 8 9 10 8 11 12 12 11 10 10 10 9 8 9 9 8 8 9 6 8 9 10 9 9 8 9 10 11 11 10 10 11 12 11
4 5 14 4 3 3 0 3 4 2 2 5 2 2 10 2 1 6 2 3 2 1 2 2 5 10 3 4 5 3 2 3 4 5 6 5 5 5 5 4 4 6 6 8 8 8 8 8 7 8 9 9 9 10 11 11 10 10 11 11 10 10 10 9 9 7 6 8 8 9 11 11 12 8 7 10 11 12 14 15 12 12 11 12 11 11
10 2 1 3 4 5 5 3 4 4 5 2 5 5 5 3 4 8 4 2 1 0 1 1 4 7 2 1 2 2 3 4 3 5 5 5 4 3 2 4 5 5 5 6 7 7 7 7 8 8 7 7 9 9 10 9 9 7 9 9 10 10 9 8 9 8 5 7 7 6 8 7 8 10 11 12 13 10 9 11 13 11 10 11 11 11
9 7 3 4 2 2 4 2 5 6 4 2 5 10 8 6 7 4 3 4 6 3 3 1 3 3 3 3 2 3 1 2 2 5 4 3 4 4 5 5 4 5 4 3 4 4 4 5 5 7 8 9 8 9 7 6 7 8 9 10 11 10 10 10 9 8 10 10 10 11 12 12 12 12 12 12 9 10 11 9 6 12 12 12 12 12
6 1 4 6 4 3 4 4 4 7 4 1 5 7 10 6 2 2 1 2 2 0 1 2 1 6 6 4 3 2 2 3 2 3 2 3 3 3 3 3 3 4 5 4 4 4 5 6 6 7 9 8 8 7 4 6 8 9 10 10 11 10 9 9 9 9 9 12 12 13 11 10 11 11 7 5 5 7 7 8 11 10 11 12 12 12
2 1 2 1 4 5 4 7 4 9 6 4 1 3 3 4 5 4 4 5 3 1 3 2 1 4 4 6 1 3 4 2 2 1 2 2 1 2 2 3 3 3 3 3 3 4 4 4 5 7 7 7 6 4 4 6 7 10 10 11 11 10 10 9 8 10 9 11 10 12 12 11 11 11 9 7 7 7 7 11 10 9 9 11 11 11
4 1 2 3 2 5 8 4 6 8 7 3 1 5 4 6 5 5 4 4 0 1 6 4 1 2 3 5 1 2 2 1 2 2 2 0 0 1 1 2 3 3 3 2 3 3 4 5 5 5 7 5 4 4 4 6 7 7 9 10 11 12 10 9 10 11 11 11 10 10 9 12 8 8 8 7 7 8 8 11 9 10 9 9 10 11
2 1 5 7 6 7 3 2 6 11 4 1 5 7 7 6 5 4 4 4 1 1 5 5 3 3 6 5 1 1 2 4 5 7 4 3 2 1 1 1 1 2 2 3 3 3 3 3 4 3 3 5 4 4 4 5 6 8 8 11 14 12 9 8 10 11 12 11 10 12 11 12 8 7 8 9 10 9 8 11 10 8 9 8 9 9
0 4 4 4 5 4 4 1 2 1 1 7 3 6 5 8 4 3 6 2 2 1 7 7 3 4 5 4 5 4 5 3 5 1 2 2 2 2 2 1 0 1 2 2 2 3 3 2 3 2 4 4 4 4 4 6 7 7 9 10 15 9 9 9 10 11 11 10 10 11 10 11 10 8 9 10 10 8 9 9 8 8 7 7 8 8
1 1 0 2 4 4 3 4 3 2 2 5 2 3 3 1 6 3 4 5 1 6 4 1 3 2 6 5 2 4 1 1 5 6 9 7 7 6 4 3 1 0 0 1 1 2 2 3 4 2 5 5 5 4 6 6 6 8 8 10 13 10 9 8 8 10 10 10 10 10 10 11 9 8 9 11 10 8 9 8 8 6 7 7 7 7
3 6 2 2 3 8 2 7 2 3 1 4 5 5 2 4 5 2 2 2 5 4 1 2 2 1 7 7 2 3 1 0 2 2 9 10 9 7 5 4 3 1 0 0 0 0 1 3 3 4 4 4 5 5 5 6 6 7 8 8 13 10 7 8 7 10 9 9 9 8 9 9 8 9 9 9 9 7 8 7 8 9 8 7 9 9
5 1 1 3 2 4 7 6 3 1 1 4 6 5 5 0 1 3 5 1 5 4 3 0 1 3 3 7 2 4 3 2 4 5 5 10 10 10 8 5 4 3 2 1 1 1 1 1 2 2 3 4 4 4 5 5 6 6 7 7 12 8 6 6 8 8 10 9 8 7 8 7 7 8 8 7 8 7 7 6 8 8 7 7 7 7
1 2 5 7 4 2 7 7 9 6 8 7 1 7 7 8 6 5 4 4 4 3 2 4 1 5 4 2 1 5 4 3 3 5 6 6 5 5 4 3 3 3 2 2 2 2 2 1 1 3 2 3 4 4 4 4 4 5 6 7 9 9 5 6 7 7 9 8 7 6 6 6 6 7 7 7 6 6 7 7 7 7 6 7 6 6
5 5 3 2 1 2 9 0 5 6 5 1 2 5 6 6 5 4 4 3 2 2 3 1 5 3 4 0 2 2 1 2 2 3 7 6 4 4 4 5 4 4 4 3 4 3 3 2 1 1 2 3 4 4 4 4 4 6 5 5 6 6 5 6 7 6 6 6 5 5 7 6 6 5 6 6 6 6 6 6 6 6 6 5 5 5
2 2 1 3 2 1 2 3 0 3 5 3 4 5 5 1 5 4 1 1 1 2 8 2 6 3 1 0 3 4 1 1 1 3 5 7 6 5 5 5 5 5 5 5 4 4 3 2 2 3 3 3 3 4 4 4 4 5 5 5 6 5 5 5 5 5 5 5 6 5 5 5 5 5 6 6 6 6 5 5 5 6 5 4 5 5
7 4 1 3 3 0 0 0 2 4 3 8 2 7 1 1 3 4 4 1 3 3 7 3 6 3 2 6 1 1 1 2 2 4 5 5 5 6 6 6 7 7 6 4 4 4 4 4 4 3 3 3 4 4 4 4 3 4 4 5 7 6 6 4 4 4 4 5 5 5 5 5 4 5 4 5 5 5 6 5 5 4 5 5 4 5
3 3 2 1 1 2 2 1 4 2 3 3 2 2 4 2 1 1 4 3 2 4 6 3 1 4 7 6 2 5 7 8 6 5 6 8 8 9 8 9 7 4 4 5 6 5 5 5 4 4 4 4 4 3 4 4 3 3 4 4 5 6 5 4 3 4 3 4 4 4 4 4 4 4 4 4 4 5 6 6 6 6 5 4 4 5
0 2 3 1 2 0 0 3 6 4 1 2 2 2 1 1 1 5 5 2 4 5 2 7 2 8 6 4 11 8 12 10 9 8 11 12 12 11 10 10 8 8 8 7 6 6 6 5 5 5 5 5 5 4 4 4 3 4 4 4 4 4 4 4 4 4 4 4 4 4 4 4 4 4 4 4 5 6 6 5 5 6 7 7 6 6
2 1 5 1 2 2 2 4 8 11 9 2 2 1 0 1 2 3 1 3 3 4 4 3 11 2 2 3 6 6 8 13 16 16 12 11 12 11 11 10 9 9 8 8 8 7 6 5 5 5 5 4 4 3 3 4 5 4 4 4 4 5 4 5 3 4 4 4 4 5 5 5 5 6 5 7 7 8 7 7 7 7 5 4 7 6
2 2 7 0 1 4 5 1 1 1 1 5 11 10 11 7 3 3 8 3 1 3 5 3 13 4 2 2 2 1 4 10 11 11 13 13 14 16 12 9 9 9 9 9 7 6 6 5 6 5 4 3 3 4 4 4 4 4 4 3 3 4 4 3 3 3 4 4 5 6 5 5 5 5 6 7 8 8 8 7 7 6 7 8 7 8
2 3 3 4 6 7 2 1 2 2 1 1 3 4 6 3 5 4 7 5 2 2 4 2 1 8 1 2 2 3 3 6 7 7 10 12 13 11 9 9 9 10 10 8 7 6 6 6 6 6 6 6 6 6 5 4 4 4 4 3 3 5 3 2 2 3 4 5 6 5 4 5 6 6 7 8 7 7 6 6 6 6 6 6 6 5
3 1 0 2 1 3 2 1 1 2 1 0 0 2 4 7 6 7 5 4 6 2 2 1 3 4 1 2 3 3 3 3 6 8 11 9 10 11 12 11 11 10 6 4 5 6 7 6 5 5 6 6 5 5 5 4 4 4 3 3 3 4 2 3 3 3 5 5 6 4 6 6 5 7 6 7 6 6 6 6 6 5 6 6 6 7
3 2 5 1 1 1 2 0 1 1 1 1 1 1 0 1 2 2 6 2 1 7 6 7 13 6 2 1 0 1 3 4 7 7 8 10 9 9 10 9 10 8 6 7 9 9 8 8 9 8 7 7 6 5 4 4 3 4 3 3 4 4 3 3 3 5 5 5 6 6 6 6 5 6 7 6 6 6 6 6 6 6 7 7 7 7
4 2 5 7 11 8 5 5 4 5 6 1 1 0 2 5 5 2 4 3 9 3 8 5 10 2 1 1 1 1 2 3 4 6 4 4 5 8 10 12 10 6 7 8 8 8 11 10 6 6 6 5 5 5 4 4 4 4 4 3 2 4 4 3 3 4 5 5 6 5 6 5 6 6 6 6 6 6 6 6 6 6 6 6 7 6
3 0 3 6 5 6 4 2 1 4 3 3 5 6 9 6 7 6 3 4 12 3 9 9 8 1 3 1 3 3 3 5 7 6 8 9 9 10 9 7 6 7 8 10 9 7 4 5 10 9 5 5 5 4 4 5 4 4 4 4 3 3 3 3 5 5 6 5 5 5 5 5 5 5 5 5 5 5 5 6 6 6 7 6 6 6
3 2 9 12 13 15 11 6 4 7 8 9 10 10 10 9 7 10 12 10 6 3 11 5 4 3 7 5 6 5 6 5 5 4 6 6 8 11 10 5 5 5 5 5 5 7 11 11 8 7 7 6 5 4 4 3 5 6 6 6 3 3 4 4 5 5 5 5 5 5 4 4 4 5 5 5 5 6 6 6 6 7 7 6 7 7
6 6 5 9 11 11 2 3 4 4 4 2 6 7 9 11 6 13 13 6 5 8 14 5 8 7 9 7 7 9 9 9 10 12 14 11 3 3 3 5 6 7 6 7 9 10 10 11 10 9 7 7 5 6 5 5 5 4 3 3 3 3 4 3 5 5 4 5 5 4 3 4 4 5 5 6 5 6 6 6 6 6 6 6 6 6
3 5 2 4 8 4 2 3 0 5 2 1 5 8 8 8 11 8 4 5 9 9 4 2 4 10 8 2 6 7 5 5 4 2 0 2 6 6 5 5 6 6 7 9 11 12 12 11 8 8 8 7 8 7 7 6 6 6 7 5 3 4 2 4 4 5 5 5 4 4 4 5 4 4 4 5 5 6 5 5 6 6 5 6 6 6
5 3 7 3 3 3 1 1 1 2 2 5 7 10 10 4 4 7 6 3 4 5 9 10 9 14 5 5 5 2 1 1 3 4 5 3 3 6 6 6 6 7 8 9 9 11 11 9 7 7 8 9 9 10 9 8 7 5 4 5 4 3 2 3 4 4 4 4 3 4 4 4 4 4 4 4 5 3 3 5 4 4 4 4 4 6
3 4 3 2 4 2 1 4 2 2 1 4 10 16 5 5 7 6 6 5 6 9 8 5 9 12 5 3 1 2 3 5 8 7 4 4 4 5 6 7 8 8 9 9 10 8 7 9 10 11 12 11 10 10 9 8 7 7 6 5 4 4 3 4 4 5 3 3 3 3 4 3 4 3 3 3 3 3 3 3 3 3 3 4 4 4
6 5 4 3 4 4 2 3 5 3 2 8 19 17 11 12 6 1 2 5 11 9 6 9 13 9 2 4 3 6 6 7 5 4 5 5 4 5 7 9 8 6 8 9 9 10 11 13 13 13 10 9 10 10 9 9 9 8 7 6 4 4 4 3 4 4 3 3 4 3 3 3 3 2 2 2 2 2 3 3 4 4 5 5 4 4
4 7 5 5 6 3 4 4 2 5 10 16 1 6 14 12 12 11 11 11 8 7 7 7 8 1 3 4 7 9 7 6 7 7 3 5 5 5 6 6 7 8 7 6 8 10 11 9 8 8 10 9 8 6 7 6 7 6 5 6 5 5 3 4 3 3 4 3 3 2 3 4 3 3 3 2 3 3 3 4 4 4 4 4 4 4
7 6 5 0 4 4 2 3 4 11 16 1 2 3 4 8 9 14 11 8 5 7 7 8 7 5 8 10 10 7 1 3 3 3 4 6 5 6 7 8 9 10 10 8 7 8 9 10 8 6 6 7 8 8 8 6 6 7 6 6 6 3 4 3 3 3 4 3 2 3 3 3 3 3 2 3 3 3 3 3 3 4 4 4 5 6
6 6 3 1 4 4 3 6 6 8 1 1 2 3 3 6 2 2 5 7 8 10 11 10 11 10 12 9 3 1 2 2 3 4 7 6 7 8 7 8 10 8 8 10 11 10 9 10 12 13 10 6 8 7 7 8 7 8 6 5 6 4 3 4 3 4 3 2 2 3 3 2 2 2 2 3 3 3 4 4 4 5 5 4 4 3
9 4 4 5 4 6 5 8 10 6 8 7 4 2 7 5 6 7 8 8 9 9 9 7 10 14 8 1 1 0 1 1 3 7 3 8 7 6 8 9 7 9 10 9 8 9 7 6 6 6 8 8 8 9 8 7 7 8 7 6 5 5 3 3 3 3 3 2 2 2 2 2 2 2 3 3 4 4 4 5 5 4 3 5 5 6
1 10 6 7 4 7 5 3 2 1 11 11 3 1 0 3 5 4 4 7 4 3 8 11 12 13 4 1 1 2 2 2 6 7 4 5 5 6 6 6 4 5 6 4 2 2 4 5 6 6 10 10 8 6 7 7 8 8 7 6 5 5 4 3 3 3 3 2 2 2 2 2 1 2 3 3 4 4 4 3 3 3 3 5 7 7
4 1 1 7 4 5 3 6 6 8 10 2 3 3 1 1 7 5 2 7 6 7 8 10 9 5 5 6 3 5 4 2 7 7 7 4 5 6 7 7 6 5 5 5 7 7 6 6 8 8 8 9 10 8 8 8 9 8 6 6 5 4 4 4 4 4 3 3 2 2 2 1 1 1 2 3 3 3 5 4 4 4 4 4 4 7
2 1 2 1 2 6 4 6 9 4 6 1 3 1 2 2 5 6 2 8 3 7 5 7 8 6 6 4 7 7 7 5 6 8 4 5 7 6 7 7 6 6 5 4 2 4 6 8 10 7 9 11 11 9 9 8 7 6 7 6 5 4 4 5 5 3 3 2 2 2 1 1 1 1 2 4 3 3 4 4 4 4 4 5 4 6
1 1 1 9 8 9 10 5 2 6 4 1 6 3 3 2 6 5 9 8 3 5 6 6 7 7 7 8 7 6 8 7 8 6 1 1 1 3 5 4 3 4 6 6 6 7 8 8 11 14 14 10 10 9 8 7 7 6 5 6 5 5 5 4 4 3 2 2 1 1 1 1 1 2 3 3 4 4 4 4 5 5 5 6 5 5
3 3 4 1 6 8 6 5 8 6 5 8 2 8 6 5 4 10 6 3 10 7 6 8 8 5 9 11 8 7 7 8 5 1 2 2 4 1 0 1 2 3 2 3 6 7 7 7 5 4 4 5 9 8 7 7 7 5 6 4 5 4 4 4 4 3 2 1 0 0 1 1 2 1 3 3 3 4 5 4 4 4 5 5 5 7
9 8 5 7 2 3 1 6 4 9 3 12 10 3 2 4 7 5 2 0 4 7 10 8 6 7 9 8 9 9 7 4 4 5 5 4 3 5 5 5 7 8 9 7 5 6 8 8 8 8 8 7 8 7 6 7 7 5 5 6 5 4 4 4 3 2 2 1 0 1 1 2 2 3 2 3 3 4 6 4 4 4 4 6 6 7
4 5 3 4 6 7 8 9 10 6 5 11 14 9 6 10 6 5 7 5 2 5 7 7 7 8 10 9 9 8 7 6 5 4 4 4 5 5 3 4 2 1 2 4 4 10 10 9 6 7 6 6 6 6 6 8 8 6 6 6 4 4 3 3 3 2 1 0 1 1 2 2 3 3 3 4 4 4 5 5 4 4 4 5 5 7
7 9 7 7 5 9 9 8 3 3 11 11 9 4 9 9 5 8 6 8 8 6 5 5 8 7 9 9 7 6 4 5 8 6 4 6 5 6 6 9 9 9 9 10 9 9 9 12 12 10 7 7 6 5 5 4 8 6 7 4 5 4 5 4 3 1 1 1 2 2 3 3 3 4 4 4 3 4 4 5 4 6 4 4 5 6
4 1 1 3 5 2 2 3 0 0 5 9 7 4 5 4 3 4 6 4 5 7 9 9 7 7 8 6 6 4 6 6 6 6 5 6 6 7 5 4 4 5 4 2 3 7 7 4 5 8 9 6 5 6 4 4 6 8 5 4 5 4 5 4 3 1 2 3 2 3 2 3 4 4 4 4 4 4 4 4 5 5 6 5 6 6
3 2 2 4 3 2 7 3 7 8 4 8 12 7 1 1 6 6 4 6 5 6 7 6 7 8 8 8 8 8 8 7 7 7 5 5 6 7 7 8 8 8 8 10 8 7 7 7 9 10 11 11 7 6 5 5 3 4 5 7 6 5 5 4 4 3 2 3 3 3 2 3 4 4 3 3 3 3 3 4 4 5 6 6 7 7
4 5 3 6 3 5 6 5 3 2 2 5 7 7 7 10 7 6 8 6 3 2 5 6 3 3 6 6 9 7 9 6 5 7 6 6 8 7 7 8 9 6 7 5 5 7 5 7 10 11 11 11 9 7 7 6 6 5 5 4 5 5 5 4 4 4 4 4 3 3 3 3 4 4 4 4 4 4 5 4 4 5 7 7 7 7
4 5 5 4 6 3 1 1 0 2 3 4 6 7 8 8 8 6 7 6 4 4 2 1 4 5 7 8 6 6 6 9 8 8 8 7 6 6 8 9 8 9 6 7 8 10 13 11 11 11 12 10 9 10 8 9 7 5 5 4 4 6 5 4 3 3 3 3 2 3 2 3 3 3 4 4 4 4 5 6 6 7 8 8 8 8
5 7 3 3 2 3 7 7 7 3 4 7 9 12 13 13 6 5 2 3 4 5 6 5 6 5 6 5 6 7 8 9 8 6 8 10 9 8 6 7 7 6 7 7 7 9 8 9 10 10 10 7 10 11 8 8 7 5 6 5 5 6 5 4 3 2 3 3 3 3 2 3 3 3 3 4 5 5 6 8 12 10 7 8 13 18
9 12 7 8 10 5 6 7 10 11 8 6 8 11 11 6 5 6 7 8 8 8 7 6 7 5 6 8 6 9 9 9 10 7 7 8 9 9 8 6 6 7 8 7 8 8 10 9 8 8 9 10 11 9 9 9 8 7 6 6 6 7 7 6 4 3 3 3 3 3 3 3 3 3 4 4 4 4 6 7 7 11 15 14 14 15
Wind_Direction
108 138 187 211 214 200 206 199 208 228 140 118 115 135 217 230 277 287 265 255 341 335 251 251 245 253 269 350 338 359 36 58 55 59 59 49 48 44 42 38 31 35 24 334 1 12 8 9 10 8 13 13 30 28 25 33 32 32 27 30 28 12 21 35 37 43 53 67 74 62 64 66 49 49 53 53 45 44 40 41 42 39 37 34 34 28
71 172 235 229 214 198 213 224 269 24 102 183 236 230 275 186 261 239 249 357 333 159 296 151 335 271 266 19 357 359 53 42 32 69 57 58 51 42 43 37 24 360 354 15 21 11 12 13 11 12 16 18 32 18 27 33 34 38 38 39 27 19 26 28 28 49 57 49 66 89 75 80 62 54 44 50 42 46 45 40 39 38 36 38 34 26
121 206 235 235 197 100 87 160 180 201 225 254 214 248 301 264 240 279 276 342 280 128 266 351 309 273 294 48 36 49 63 55 46 55 55 69 48 38 31 29 23 28 25 22 16 14 15 11 9 11 16 24 27 27 29 22 37 39 41 37 34 29 27 23 21 43 55 56 52 73 71 74 80 62 62 62 51 45 48 47 43 39 35 34 36 28
257 275 245 232 136 175 4 96 127 118 120 204 200 197 241 211 25 296 292 8 16 111 284 6 335 292 103 72 65 45 70 84 67 65 59 48 57 47 40 29 30 27 24 24 13 10 8 9 6 15 23 19 24 27 26 22 31 39 43 43 41 37 34 30 23 38 47 68 80 76 80 73 71 72 65 64 49 40 40 38 34 36 34 36 40 34
212 212 314 133 159 165 209 149 140 159 237 253 196 214 247 218 227 189 249 323 306 34 70 300 311 302 309 190 86 90 97 87 46 57 51 40 40 35 34 46 33 39 20 20 14 9 8 12 17 20 20 18 32 30 28 21 27 38 44 50 52 48 42 39 36 37 46 65 62 73 80 79 77 51 45 45 38 36 40 44 36 31 31 35 39 36
280 255 114 71 80 154 174 205 208 151 232 306 228 206 221 219 232 267 333 10 10 334 354 51 349 308 294 293 205 179 77 58 20 62 38 27 28 23 39 27 19 26 30 29 11 2 357 11 19 27 27 34 31 31 22 24 31 41 47 49 51 51 46 40 38 43 60 57 65 58 53 50 53 51 40 40 36 34 38 43 41 40 36 36 40 36
213 341 167 213 163 162 179 201 232 160 189 64 272 203 221 217 183 174 185 91 296 148 341 27 80 264 330 324 227 158 95 70 34 49 22 25 21 28 30 26 19 18 8 8 16 8 21 13 31 35 36 25 32 17 6 39 44 47 52 54 53 53 50 42 42 41 57 66 66 73 77 79 75 80 63 64 54 60 54 54 46 43 39 37 39 35
130 359 96 71 157 175 198 240 235 160 136 226 252 138 153 153 178 200 156 175 217 255 300 24 151 229 309 283 26 133 105 61 61 10 5 10 18 18 28 21 19 12 9 358 357 7 18 22 25 41 35 32 14 347 11 51 51 53 53 58 58 56 53 44 50 58 56 74 72 76 76 73 75 76 82 64 63 59 57 56 47 45 42 40 40 38
140 162 158 164 171 178 215 203 187 163 145 219 210 135 144 161 177 138 127 150 148 54 293 314 231 331 254 260 6 136 159 231 262 225 218 253 330 49 28 24 15 10 356 359 2 13 14 20 23 24 45 24 12 353 31 51 56 59 60 65 65 60 57 48 52 62 60 70 74 77 80 79 67 78 78 75 61 57 48 56 44 45 41 40 38 39
287 205 212 162 151 216 213 262 173 167 203 217 128 96 83 79 72 112 106 109 354 78 266 260 191 233 281 274 4 3 282 266 221 214 201 213 204 217 120 31 25 6 4 353 356 356 17 18 23 9 36 52 29 1 23 51 61 61 65 68 66 57 54 51 55 62 63 64 72 75 72 79 75 68 70 66 59 51 44 53 45 41 40 34 34 32
176 318 154 125 194 202 136 64 151 272 126 128 93 65 23 36 25 28 60 84 65 269 244 231 250 181 291 264 206 141 220 202 165 143 174 219 251 242 237 197 88 14 349 349 352 1 8 360 27 11 59 55 43 22 30 49 55 59 62 68 67 56 55 51 56 60 64 63 63 72 73 76 77 68 69 66 57 51 48 50 45 41 38 37 36 31
3 52 136 252 96 99 99 82 30 90 121 124 114 127 64 1 10 37 346 32 165 267 262 252 222 160 172 284 271 226 155 204 184 188 176 192 203 201 193 212 183 25 351 337 10 21 24 44 38 39 61 54 50 46 46 50 56 60 61 69 75 57 52 53 56 62 62 65 66 69 72 74 71 70 67 66 64 53 56 52 48 41 44 37 36 35
266 228 235 323 213 132 109 84 11 31 22 84 91 61 96 259 33 314 16 276 211 210 208 329 171 91 242 227 175 186 216 258 219 204 188 182 190 190 196 190 180 160 25 61 334 11 44 85 81 75 69 67 57 63 57 57 65 68 69 70 80 65 56 59 62 69 68 69 66 69 71 71 69 69 71 70 69 56 57 48 45 37 37 28 30 26
274 278 139 221 78 220 140 141 163 101 220 124 151 138 95 157 66 262 269 260 308 287 258 178 126 270 246 286 191 230 235 215 244 233 202 192 184 180 184 178 164 159 184 212 223 217 185 131 116 93 95 87 83 73 72 67 73 75 78 77 82 81 70 77 75 76 77 70 70 70 75 75 75 72 70 67 69 61 58 51 49 44 38 35 34 25
183 328 257 146 231 163 177 189 181 160 158 207 112 150 182 141 155 228 186 213 226 196 249 272 61 228 142 217 174 249 267 277 249 229 199 179 178 173 157 146 148 162 201 211 212 205 198 198 159 118 110 105 94 88 79 79 79 84 82 82 88 86 74 79 80 78 76 73 71 73 74 75 73 76 73 71 70 65 59 50 51 46 38 37 26 24
197 217 260 285 222 140 180 282 116 99 51 182 170 79 93 232 137 220 204 161 230 326 332 202 208 188 172 358 282 307 317 4 7 110 142 148 152 147 147 169 182 194 203 203 211 225 232 226 219 170 131 118 113 105 99 91 97 92 93 90 89 93 86 76 77 75 83 84 82 74 73 69 71 74 76 73 67 63 61 54 54 46 43 34 28 20
47 290 287 336 92 135 200 149 178 141 205 210 107 189 208 156 107 83 44 56 76 53 254 148 309 310 299 319 341 317 29 7 52 127 147 163 169 162 179 188 198 206 202 207 208 209 216 219 220 199 172 144 131 124 121 124 120 115 112 105 94 84 75 77 80 87 82 82 76 68 71 70 70 71 73 76 70 67 59 60 49 50 36 32 30 19
138 234 291 115 209 339 68 171 101 36 144 98 176 228 158 147 117 132 226 3 69 205 269 88 212 273 91 278 99 1 320 243 216 182 183 179 167 180 199 199 204 204 205 208 214 221 218 215 203 196 195 171 155 146 140 137 143 128 125 118 112 105 100 92 90 86 88 86 81 74 67 58 62 69 66 67 68 59 61 49 50 43 36 29 19 20
118 292 292 339 121 325 358 101 42 358 50 148 196 203 116 214 183 312 83 272 270 258 271 292 267 256 183 238 112 241 195 207 203 197 182 197 191 200 203 210 210 209 210 210 213 214 215 211 208 196 186 193 186 176 163 154 145 128 114 114 119 122 123 122 102 91 71 74 79 75 61 57 49 48 58 55 64 63 57 50 42 40 33 25 24 20
41 178 290 323 133 219 29 96 188 205 338 55 69 69 353 124 161 123 200 196 121 273 25 285 90 256 195 217 184 201 196 181 177 187 205 199 195 196 202 202 196 201 205 203 205 207 207 207 206 196 191 190 188 180 184 163 139 135 139 122 113 96 93 82 77 80 78 66 78 75 72 60 68 64 77 68 62 54 51 43 39 32 27 23 19 19
151 128 233 293 288 94 174 187 208 170 168 114 120 233 136 12 224 105 4 137 182 184 204 270 294 274 259 206 173 214 182 180 179 190 193 196 201 206 206 195 193 201 203 203 200 196 195 199 201 203 203 198 191 186 170 169 161 158 140 119 111 104 89 81 70 74 75 80 75 79 69 62 55 50 52 53 46 48 39 35 31 32 18 12 21 12
133 164 200 208 124 212 228 258 235 225 257 183 170 192 176 128 148 175 253 66 97 144 236 191 261 287 264 163 195 202 207 190 200 179 184 195 199 203 200 196 197 202 209 203 195 184 185 196 203 208 213 214 194 190 180 187 156 121 89 87 92 84 62 82 58 84 97 87 80 71 61 55 54 51 49 51 42 39 36 27 27 21 14 22 8 11
150 145 105 199 197 204 231 231 199 190 163 187 166 235 173 169 111 154 222 231 28 254 87 181 28 264 229 217 227 227 198 206 198 186 200 200 201 199 200 200 207 207 202 193 183 181 192 197 198 194 195 196 193 187 177 162 119 107 99 94 90 93 63 82 106 99 94 84 78 71 66 59 49 47 47 49 42 40 37 32 28 23 21 19 8 7
87 113 318 302 313 306 308 291 130 144 127 88 334 93 133 189 193 203 208 174 169 148 143 351 236 263 273 191 244 240 230 206 186 192 203 203 200 200 198 199 204 207 195 164 172 185 196 196 194 193 200 202 198 187 179 129 110 97 85 88 90 81 73 69 72 90 92 90 76 68 60 54 46 54 50 49 42 41 35 32 25 18 21 17 4 5
107 272 140 220 6 333 342 345 21 13 50 203 210 239 173 66 56 88 84 54 199 207 184 147 250 249 243 23 278 104 131 171 198 211 200 206 205 201 200 204 209 201 176 175 185 191 188 193 197 198 198 198 195 190 135 121 110 104 91 82 92 92 93 86 91 91 86 88 79 57 58 49 46 50 45 44 40 38 33 28 21 16 14 9 5 1
100 183 138 193 217 214 206 183 210 227 218 217 229 310 252 178 151 133 233 173 226 200 145 201 250 255 300 289 168 80 129 195 233 222 241 234 213 199 206 212 209 185 188 185 188 183 195 198 193 200 204 198 197 175 144 127 119 105 97 82 99 107 88 90 95 92 85 76 74 61 53 46 46 46 43 43 37 34 29 25 19 12 9 6 356 354
143 155 173 216 211 245 243 173 212 96 52 188 235 203 227 213 220 204 92 159 215 193 199 229 224 205 284 196 254 249 186 202 220 209 209 215 216 215 217 213 190 187 186 189 191 190 172 194 208 206 201 201 190 171 161 143 133 125 113 104 104 126 123 113 94 85 85 78 78 68 53 47 50 48 45 43 36 32 28 23 15 11 6 358 356 354
105 193 220 214 220 231 237 224 181 170 200 210 209 223 220 203 190 189 197 222 138 139 250 219 123 162 240 201 209 221 226 229 242 219 224 235 228 214 210 182 164 172 187 172 172 182 200 208 205 202 203 195 186 161 139 135 146 148 144 144 152 136 108 96 94 90 86 85 77 72 59 55 58 52 44 39 33 30 24 15 11 9 359 357 359 360
156 215 217 186 237 236 148 184 150 180 217 189 211 221 210 214 188 200 217 211 164 215 250 247 167 210 239 232 191 211 199 200 205 207 210 213 202 152 144 178 193 200 187 182 196 199 204 206 205 201 196 191 167 163 152 143 137 131 132 139 130 106 101 113 105 98 95 86 80 74 70 61 55 46 39 37 29 28 18 11 7 360 355 358 358 355
107 241 200 183 221 201 159 136 318 185 198 185 229 231 221 200 217 217 241 241 218 247 310 76 176 228 240 202 181 222 215 197 229 236 135 172 192 172 173 199 214 209 196 202 204 204 207 208 200 196 189 183 178 167 163 157 161 164 157 147 125 112 115 109 98 102 91 83 84 79 72 68 58 46 39 35 31 24 9 4 2 353 352 357 350 344
149 269 118 160 162 202 115 32 48 133 176 236 247 245 227 191 194 191 208 198 68 304 277 279 274 269 248 155 209 250 224 273 316 272 221 223 172 179 202 219 220 219 216 216 214 212 209 202 196 189 189 188 182 176 170 172 167 157 143 138 134 124 106 98 98 88 94 101 104 90 81 77 59 48 44 40 30 18 8 1 353 348 345 346 340 337
172 245 67 140 189 252 160 143 134 93 82 226 257 247 203 163 210 207 207 197 195 223 235 250 260 258 269 114 200 249 218 220 227 241 245 234 217 203 210 228 227 227 224 220 219 211 201 198 197 195 195 189 184 177 172 168 163 159 157 147 139 124 100 95 104 113 116 123 101 92 88 83 73 61 53 43 25 11 1 353 345 343 341 336 337 336
183 150 159 171 199 207 208 149 144 99 0 290 250 242 203 220 212 59 267 215 214 208 213 231 244 249 211 160 157 240 221 233 248 241 243 255 244 213 225 232 235 232 228 224 214 207 204 201 200 196 190 182 182 181 180 162 157 169 158 147 136 116 114 121 124 126 128 120 111 108 105 94 83 79 59 38 20 359 353 357 345 346 343 339 330 324
148 166 192 179 212 147 144 155 132 129 227 237 322 143 176 200 202 210 231 224 220 171 208 214 251 105 131 184 205 239 221 216 214 234 202 203 215 232 243 242 243 237 236 228 216 211 210 202 197 194 189 185 178 164 149 154 152 138 129 124 119 128 138 131 132 134 137 126 120 115 95 79 65 52 36 22 7 1 354 354 346 330 320 318 325 325
176 189 195 143 126 172 162 139 164 212 236 103 209 336 173 173 173 207 225 240 214 221 242 267 263 244 225 219 223 243 248 243 248 227 241 219 199 213 217 226 230 231 229 221 217 215 206 197 185 170 173 174 157 141 135 128 127 126 120 125 126 133 132 136 140 147 142 127 113 90 70 59 51 39 19 6 2 356 348 341 328 329 328 329 324 323
167 151 138 61 111 51 109 201 219 235 91 191 35 46 46 83 83 93 301 257 225 212 212 224 243 238 238 240 260 178 206 261 304 255 234 239 209 209 213 224 228 221 220 215 209 212 194 187 185 183 177 142 138 145 147 143 136 131 132 122 136 140 143 147 151 152 141 119 96 75 68 63 53 26 10 354 355 352 340 336 327 327 324 319 308 294
167 100 148 194 174 176 202 199 238 358 314 239 139 236 170 161 177 168 240 263 230 201 194 204 233 247 242 257 184 99 73 40 328 289 237 218 223 216 211 224 215 217 218 224 208 213 201 187 169 152 135 145 148 148 150 139 135 132 132 136 146 142 151 150 157 156 135 122 104 90 83 59 47 14 358 353 346 340 332 331 324 319 315 311 306 307
236 175 193 176 238 145 165 204 277 255 245 254 255 225 42 164 141 174 140 279 294 201 190 187 218 239 218 140 135 115 73 52 310 284 271 243 209 208 227 234 240 227 224 218 180 142 135 136 119 130 146 146 146 142 136 142 141 139 138 147 148 142 162 159 172 158 144 132 119 97 87 58 47 7 352 343 332 321 316 309 298 298 311 308 310 306
351 71 160 195 201 75 168 217 225 239 255 233 211 172 218 147 129 108 74 282 261 197 208 179 210 215 175 174 180 124 90 181 250 254 263 240 226 208 209 226 214 218 208 197 186 173 158 148 143 139 134 142 150 156 150 147 144 140 147 154 159 160 169 188 176 168 152 135 117 103 88 75 45 5 338 322 309 308 305 305 301 300 299 285 288 291
30 359 130 101 190 212 187 229 236 226 253 282 183 231 204 122 109 76 20 273 257 206 181 164 198 192 202 166 144 149 150 191 248 255 231 211 209 205 198 212 204 209 212 189 186 163 146 132 122 132 152 171 171 152 154 149 146 149 153 164 154 170 194 194 178 151 131 126 109 97 80 60 31 345 321 306 304 299 289 294 302 298 299 295 287 295
168 331 192 211 209 216 218 250 3 285 266 167 179 187 157 143 83 104 218 234 233 193 190 180 199 194 156 148 162 164 226 196 203 216 191 186 132 233 225 227 215 190 183 175 167 139 147 166 169 174 181 173 153 153 154 148 144 159 159 155 162 202 197 170 141 130 129 112 101 84 68 35 17 316 301 287 288 291 296 291 292 299 296 299 299 295
346 93 326 354 228 224 230 226 236 271 230 154 252 151 174 101 208 215 234 203 153 195 193 192 194 184 165 170 185 202 220 224 234 287 287 219 201 261 121 141 90 66 67 120 145 154 158 165 167 134 122 139 150 153 153 150 151 152 154 157 199 198 157 142 134 128 113 106 84 67 16 340 313 298 283 293 297 301 290 280 279 289 295 294 300 301
187 137 208 197 199 54 135 230 268 255 246 130 130 63 281 155 238 191 153 255 184 166 170 208 198 196 172 198 207 209 233 261 235 241 258 260 242 245 199 176 183 180 165 144 158 191 166 167 180 182 164 147 154 154 157 147 151 159 159 186 205 153 147 134 129 114 105 78 33 347 328 315 305 299 305 295 287 286 291 292 297 294 295 300 300 296
205 104 241 250 189 167 195 197 214 221 123 162 144 177 208 208 187 155 133 186 212 167 178 182 218 194 190 189 202 227 233 243 284 259 259 265 247 256 224 197 204 231 246 245 207 176 172 177 169 158 150 152 155 159 159 157 157 165 173 200 141 147 127 125 107 101 86 45 313 316 305 291 290 285 281 279 284 283 287 298 299 296 294 294 293 297
211 189 179 189 204 158 200 210 204 171 163 189 179 190 200 203 153 179 150 169 174 228 194 176 208 203 195 200 210 202 222 227 227 236 210 242 241 234 225 214 206 207 202 201 199 179 182 183 176 160 153 163 162 162 162 164 155 162 183 184 150 150 143 131 113 112 191 243 265 272 266 280 275 274 271 268 265 286 296 300 305 306 292 285 289 283
313 151 153 80 255 261 291 172 129 45 187 195 231 212 205 207 178 148 173 162 221 188 171 186 206 192 197 196 186 232 210 231 223 246 233 242 241 243 238 247 241 224 206 167 167 177 185 143 138 155 164 167 171 163 165 170 156 166 197 153 153 142 140 132 132 168 221 238 244 249 261 283 286 273 264 268 264 257 268 277 293 289 293 284 275 271
238 136 132 194 271 135 259 125 153 194 205 194 210 229 237 249 211 197 212 223 221 178 190 209 188 186 180 166 186 205 225 225 231 245 243 245 244 238 225 224 232 214 200 205 199 149 158 161 164 177 177 179 183 171 168 165 170 157 143 157 149 141 136 142 156 193 221 244 249 264 253 263 278 287 284 279 276 271 273 274 273 274 277 273 274 273
308 174 142 229 223 175 239 205 213 6 239 229 218 215 236 242 238 213 217 225 217 155 182 203 172 148 140 171 198 197 230 231 213 244 246 236 237 235 227 229 233 229 224 196 144 166 161 180 188 186 182 187 178 171 166 168 174 163 148 148 144 136 136 154 171 190 221 233 235 255 255 258 274 285 299 298 302 299 294 277 257 262 260 263 263 269
181 120 220 183 193 261 305 326 119 350 339 276 249 244 241 235 231 226 216 222 206 191 203 175 198 188 173 204 180 191 222 247 226 227 236 245 240 231 227 225 223 223 196 174 183 172 190 191 194 192 188 188 141 157 169 164 148 154 151 151 139 140 148 174 188 194 213 232 236 260 261 259 271 278 282 289 281 260 252 269 273 265 264 248 237 240
103 230 192 91 209 205 177 208 145 129 244 242 228 228 231 234 218 229 206 211 216 220 216 209 243 223 213 207 179 186 209 239 239 214 228 234 234 232 228 227 224 212 205 195 166 185 189 191 189 183 185 171 155 160 167 157 143 152 153 145 147 147 161 178 177 191 231 230 231 252 254 266 264 261 265 268 277 280 278 255 265 267 261 269 275 272
183 219 145 202 212 218 231 205 183 204 224 221 210 221 224 221 181 211 223 222 224 219 211 203 235 245 226 233 201 194 217 225 241 213 222 236 237 230 227 219 210 207 199 171 166 188 195 190 180 170 178 174 147 167 160 148 143 156 160 155 155 161 169 161 177 204 233 227 235 233 239 245 265 267 261 263 270 277 292 305 293 291 289 286 287 289